Regional Weather Roundup
Issued by NWS

Home | Current Version | Previous Version | Graphics & Text | Print | Product List | Glossary On
Versions: 1 2 3 4 5 6 7 8 9 10 11 12 13 14 15 16 17 18 19 20 21 22 23 24 25 26 27 28 29 30 31 32 33 34 35 36 37 38 39 40 41 42 43 44 45 46 47 48 49 50
000
ASUS43 KIND 090109
RWRIN

WEATHER ROUNDUP FOR INDIANA
NATIONAL WEATHER SERVICE INDIANAPOLIS IN
800 PM EST THU DEC 08 2016

NOTE: "FAIR" INDICATES FEW OR NO CLOUDS BELOW 12,000 FEET WITH NO
SIGNIFICANT WEATHER AND/OR OBSTRUCTIONS TO VISIBILITY.

* - STATION DOES NOT REPORT WEATHER SUCH AS PRECIPITATION OR FOG.

+ - STATION NOT QUALITY CONTROLLED BY THE NATIONAL WEATHER SERVICE.
    USE DATA WITH CAUTION...ESPECIALLY DEWPOINT AND RELATIVE
    HUMIDITY OBSERVATIONS.

INZ001>003-010>013-019-020-090200-
NORTHWEST INDIANA

CITY           SKY/WX    TMP DP  RH WIND       PRES   REMARKS
GARY /AIRPORT/ CLOUDY    25  16  68 W14G29    30.40R WCI  13
KNOX *+        CLOUDY    21   0  39 W14       30.38S WCI   8
LA PORTE +     FLURRIES  21  15  78 W10       30.36S WCI  10
MICHIGAN CITY+ CLOUDY    27  19  74 W10G17    30.36S WCI  17
MONTICELLO +   FLURRIES  21  12  67 W15       30.42R WCI   8
RENSSELAER +   FLURRIES  23  19  86 W14G22    30.41S WCI  11
VALPARAISO     CLOUDY    22  15  75 MISG      30.38R

$$

LMZ046-743>745-090200-
SOUTHERN LAKE MICHIGAN

STATION/POSITION TIME  TEMP    WIND        PRES    WAVE
                       AIR SEA DIR/SP/G            HT
                 (UTC) (F)     (DEG/KT/KT) (MB)    (FT)

$$

INZ004-005-014>016-021>024-090200-
NORTH CENTRAL INDIANA

CITY           SKY/WX    TMP DP  RH WIND       PRES   REMARKS
ELKHART        FLURRIES  21  16  79 SW14      30.32S WCI   8
GOSHEN         CLOUDY    21  13  71 SW18      30.33S WCI   6
LOGANSPORT +   FLURRIES  21  14  73 NW8       30.41S WCI  12
PERU/GRISSOM   FLURRIES  20  14  75 NW15      30.38R WCI   7
ROCHESTER +    FLURRIES  23  19  86 W10G17    30.39S WCI  12
SOUTH BEND     LGT SNOW  20  16  84 SW13      30.33S FOG     WCI   7
WARSAW +       FLURRIES  21  12  68 W15       30.35S WCI   8

$$

INZ006>009-017-018-025>027-090200-
NORTHEAST INDIANA

CITY           SKY/WX    TMP DP  RH WIND       PRES   REMARKS
ANGOLA *+      CLOUDY    19  16  86 W10       30.26F WCI   8
AUBURN +       FLURRIES  21  14  73 SW9G17    30.33R WCI  11
FORT WAYNE     FLURRIES  20  13  74 W20G25    30.36R WCI   4
HUNTINGTON +   FLURRIES  19  13  76 W15       30.37S WCI   5
KENDALLVILLE + FLURRIES  20  15  81 W20       30.30S WCI   5

$$

INZ028-029-035-036-043>045-051>053-090200-
WEST CENTRAL INDIANA

CITY           SKY/WX    TMP DP  RH WIND       PRES   REMARKS
CRAWFORDSVL +  FLURRIES  19  14  79 W15G21    30.44R WCI   5
GREENCASTLE +  CLOUDY    21  14  73 W9        30.45R WCI  11
LAFAYETTE      FLURRIES  21  14  74 W15G24    30.44R WCI   8
TERRE HAUTE    CLOUDY    22  12  65 W13G21    30.49R WCI  10

$$

INZ030>032-037>040-046>048-054>057-064-065-090200-
CENTRAL INDIANA

CITY           SKY/WX    TMP DP  RH WIND       PRES   REMARKS
CP ATTERBURY + FLURRIES  25  16  68 NW8       30.44S WCI  16
COLUMBUS       FLURRIES  23  16  74 NW12      30.45R WCI  12
FISHERS *+     CLOUDY    19  16  86 NW18G24   30.43  WCI   4
FRANKFORT +    FLURRIES  23  16  75 NW18G24   30.43S WCI   9
GREENWOOD *+   CLOUDY    23  15  70 W12G21    30.43R WCI  12
INDIANAPOLIS   FLURRIES  22  14  71 W12       30.42R WCI  10
-EAGLE CREEK   CLOUDY    23  13  65 NW15      30.42R WCI  10
KOKOMO +       FLURRIES  20  15  81 W20       30.40S WCI   4
MARION +       LGT SNOW  19  15  84 NW13      30.40R WCI   7
MT COMFORT *+  CLOUDY    21  14  73 NW12      30.42R WCI   9
SHELBYVILLE    CLOUDY    24  13  62 W14       30.41R WCI  12
ZIONSVILLE +   FLURRIES  20  14  77 NW12G18   30.42R WCI   8

$$

INZ033-034-041-042-049-050-058-059-090200-
EAST CENTRAL INDIANA

CITY           SKY/WX    TMP DP  RH WIND       PRES   REMARKS
MUNCIE         LGT SNOW  21  15  78 NW13      30.39R WCI   9

$$

INZ060-061-067>069-081>083-085>088-090200-
SOUTHWEST INDIANA

CITY           SKY/WX    TMP DP  RH WIND       PRES   REMARKS
EVANSVILLE     CLOUDY    28  15  58 NW10      30.52R WCI  19
HUNTINGBURG *+ CLOUDY    27  16  63 NW10      30.50R WCI  17
WASHINGTON +   CLOUDY    25  17  70 NW14      30.50R WCI  13

$$

INZ062-063-066-070>080-084-089>092-090200-
SOUTH CENTRAL AND SOUTHEAST INDIANA

CITY           SKY/WX    TMP DP  RH WIND       PRES   REMARKS
BLOOMINGTON    CLOUDY    23  13  65 NW7G17    30.45R WCI  15
MADISON *+     CLOUDY    27  14  59 W10       30.45R WCI  17
NORTH VERNON + FLURRIES  25  19  80 NW10      30.43R WCI  15
SEYMOUR +      CLOUDY    27  14  59 W9G17     30.46R WCI  17

$$





USA.gov is the U.S. government's official web portal to all federal, state and local government web resources and services.